Location: *
(57.8420°S, 159.8600°W)
Time: 03:08:11
(UTC+00:00)

Meteor 2-2 Rocket - Pass Details

Date: 18 May 2021
Orbit: 853 x 928 km, 81.3° (Epoch: 20 June)

Event Time Altitude Azimuth Distance (km) Brightness Sun altitude
Rises 03:24:58 0° 196° (SSW) 3,596 7.4 -7.5°
Reaches altitude 10° 03:27:29 10° 194° (SSW) 2,639 6.7 -7.8°
Maximum altitude 03:33:32 79° 107° (ESE) 935 4.3 -8.6°
Drops below altitude 10° 03:39:24 10° 20° (NNE) 2,560 6.8 -9.3°
Sets 03:41:49 0° 18° (NNE) 3,482 7.5 -9.6°
